QPF
0.00 0.00 0.00 0.00 0.00 0.00 0.00 0.00 0.01 0.01 0.02 0.04 0.06 0.07 0.05 0.04 0.07 0.06 0.10 0.11 0.11 0.11 0.09 0.09 0.08 0.07 0.06 0.05 0.05 0.04 0.03 0.03 0.03 0.03 0.04 0.05 0.06 0.06
0.00 0.00 0.00 0.00 0.00 0.00 0.00 0.00 0.01 0.01 0.01 0.02 0.03 0.03 0.02 0.03 0.04 0.04 0.09 0.09 0.09 0.10 0.10 0.10 0.09 0.08 0.07 0.06 0.04 0.03 0.02 0.02 0.01 0.01 0.01 0.02 0.02 0.02
0.00 0.00 0.00 0.00 0.00 0.00 0.00 0.00 0.00 0.00 0.01 0.01 0.01 0.02 0.02 0.03 0.05 0.04 0.07 0.09 0.09 0.09 0.10 0.10 0.10 0.10 0.08 0.07 0.05 0.03 0.02 0.02 0.01 0.01 0.01 0.02 0.02 0.02
0.01 0.01 0.01 0.00 0.00 0.00 0.00 0.00 0.00 0.01 0.01 0.01 0.01 0.02 0.02 0.03 0.03 0.04 0.05 0.07 0.09 0.10 0.11 0.13 0.13 0.12 0.10 0.08 0.06 0.04 0.03 0.02 0.02 0.02 0.02 0.02 0.02 0.03
0.01 0.01 0.01 0.01 0.01 0.01 0.01 0.00 0.00 0.00 0.01 0.00 0.00 0.01 0.01 0.02 0.03 0.03 0.03 0.06 0.08 0.10 0.11 0.12 0.13 0.13 0.12 0.09 0.07 0.05 0.04 0.03 0.02 0.02 0.02 0.02 0.02 0.02
0.01 0.01 0.01 0.01 0.01 0.01 0.01 0.00 0.00 0.00 0.01 0.01 0.00 0.00 0.01 0.02 0.05 0.06 0.05 0.05 0.07 0.08 0.09 0.11 0.12 0.12 0.12 0.10 0.08 0.05 0.03 0.03 0.02 0.01 0.01 0.01 0.01 0.01
0.01 0.01 0.01 0.01 0.01 0.00 0.00 0.00 0.00 0.00 0.00 0.01 0.01 0.01 0.01 0.03 0.05 0.08 0.08 0.07 0.07 0.08 0.08 0.08 0.09 0.09 0.09 0.09 0.08 0.05 0.03 0.02 0.01 0.01 0.01 0.01 0.00 0.01
0.01 0.02 0.01 0.01 0.00 0.00 0.00 0.00 0.00 0.01 0.01 0.01 0.01 0.01 0.01 0.02 0.06 0.10 0.12 0.10 0.08 0.06 0.08 0.08 0.07 0.08 0.08 0.07 0.06 0.04 0.03 0.02 0.01 0.01 0.01 0.01 0.01 0.01
0.01 0.02 0.01 0.01 0.01 0.01 0.01 0.00 0.00 0.00 0.00 0.01 0.01 0.01 0.01 0.02 0.05 0.10 0.13 0.15 0.12 0.08 0.08 0.09 0.07 0.08 0.08 0.07 0.06 0.04 0.03 0.02 0.01 0.00 0.00 0.01 0.01 0.01
0.01 0.02 0.02 0.03 0.02 0.02 0.02 0.02 0.02 0.01 0.00 0.00 0.00 0.01 0.01 0.03 0.05 0.10 0.17 0.21 0.23 0.20 0.14 0.10 0.08 0.06 0.06 0.06 0.05 0.04 0.02 0.02 0.01 0.01 0.01 0.01 0.01 0.01
0.01 0.02 0.02 0.03 0.02 0.01 0.02 0.03 0.03 0.02 0.00 0.00 0.00 0.00 0.00 0.01 0.02 0.07 0.15 0.21 0.24 0.24 0.18 0.10 0.07 0.06 0.05 0.05 0.04 0.04 0.03 0.02 0.02 0.01 0.01 0.01 0.01 0.01
0.02 0.02 0.01 0.01 0.01 0.00 0.01 0.03 0.03 0.03 0.02 0.01 0.01 0.00 0.00 0.00 0.01 0.03 0.08 0.16 0.21 0.23 0.17 0.11 0.08 0.07 0.05 0.05 0.03 0.03 0.03 0.03 0.04 0.03 0.02 0.01 0.01 0.00
0.01 0.01 0.02 0.00 0.00 0.00 0.01 0.02 0.02 0.03 0.04 0.04 0.03 0.02 0.02 0.02 0.03 0.03 0.06 0.12 0.17 0.18 0.15 0.13 0.10 0.08 0.06 0.04 0.03 0.03 0.02 0.02 0.03 0.04 0.04 0.03 0.02 0.00
0.01 0.01 0.01 0.00 0.00 0.00 0.00 0.00 0.00 0.00 0.02 0.04 0.04 0.03 0.02 0.02 0.04 0.06 0.07 0.11 0.18 0.21 0.19 0.18 0.14 0.10 0.06 0.04 0.03 0.02 0.03 0.02 0.01 0.01 0.02 0.03 0.02 0.01
0.01 0.01 0.01 0.00 0.00 0.01 0.00 0.00 0.00 0.01 0.03 0.04 0.04 0.03 0.03 0.04 0.05 0.08 0.11 0.15 0.19 0.23 0.25 0.25 0.21 0.16 0.11 0.05 0.02 0.01 0.01 0.03 0.02 0.01 0.01 0.01 0.00 0.00
0.01 0.01 0.00 0.01 0.01 0.01 0.02 0.01 0.01 0.03 0.05 0.05 0.05 0.06 0.07 0.07 0.07 0.09 0.10 0.14 0.18 0.21 0.25 0.28 0.26 0.21 0.15 0.08 0.04 0.02 0.01 0.01 0.02 0.02 0.01 0.00 0.00 0.00
0.01 0.01 0.02 0.04 0.05 0.06 0.07 0.07 0.07 0.06 0.05 0.08 0.10 0.10 0.10 0.09 0.08 0.10 0.12 0.14 0.16 0.16 0.19 0.26 0.28 0.26 0.20 0.12 0.06 0.03 0.01 0.00 0.00 0.01 0.01 0.01 0.00 0.00
0.01 0.02 0.03 0.06 0.07 0.10 0.11 0.12 0.12 0.12 0.11 0.10 0.12 0.13 0.12 0.10 0.10 0.12 0.14 0.15 0.16 0.17 0.16 0.18 0.22 0.26 0.26 0.18 0.10 0.05 0.02 0.01 0.00 0.00 0.00 0.00 0.00 0.00
0.01 0.02 0.04 0.05 0.08 0.11 0.12 0.13 0.13 0.14 0.13 0.13 0.13 0.14 0.14 0.13 0.12 0.12 0.14 0.16 0.18 0.18 0.18 0.15 0.16 0.19 0.21 0.17 0.10 0.06 0.04 0.01 0.00 0.00 0.00 0.00 0.00 0.00
0.02 0.03 0.05 0.06 0.08 0.11 0.14 0.15 0.16 0.15 0.15 0.14 0.14 0.14 0.15 0.15 0.13 0.12 0.13 0.14 0.17 0.18 0.17 0.17 0.14 0.14 0.14 0.12 0.09 0.07 0.04 0.03 0.01 0.00 0.00 0.00 0.00 0.00
0.04 0.04 0.04 0.05 0.05 0.07 0.12 0.14 0.16 0.16 0.15 0.16 0.17 0.16 0.17 0.17 0.14 0.12 0.13 0.14 0.16 0.16 0.14 0.14 0.14 0.13 0.15 0.15 0.14 0.11 0.07 0.05 0.04 0.02 0.00 0.00 0.00 0.00
0.04 0.04 0.05 0.06 0.05 0.07 0.10 0.13 0.15 0.16 0.16 0.16 0.18 0.16 0.17 0.18 0.16 0.13 0.13 0.13 0.14 0.14 0.13 0.15 0.18 0.17 0.15 0.15 0.14 0.12 0.11 0.07 0.04 0.03 0.02 0.01 0.00 0.00
0.05 0.04 0.05 0.06 0.05 0.07 0.08 0.11 0.13 0.14 0.17 0.17 0.17 0.17 0.17 0.18 0.19 0.18 0.15 0.14 0.15 0.16 0.17 0.18 0.21 0.21 0.18 0.15 0.15 0.15 0.13 0.10 0.06 0.03 0.01 0.00 0.00 0.00
MSLP
1013.99 1013.82 1013.66 1013.49 1013.31 1013.09 1012.85 1012.59 1012.32 1012.05 1011.82 1011.61 1011.46 1011.34 1011.28 1011.24 1011.24 1011.25 1011.29 1011.35 1011.44 1011.58 1011.77 1012.03 1012.37 1012.78 1013.26 1013.80 1014.39 1015.00 1015.62 1016.24 1016.84 1017.41 1017.96 1018.48 1018.97 1019.44
1013.77 1013.60 1013.44 1013.27 1013.10 1012.90 1012.68 1012.44 1012.20 1011.96 1011.74 1011.54 1011.38 1011.26 1011.16 1011.10 1011.06 1011.03 1011.03 1011.04 1011.09 1011.18 1011.33 1011.54 1011.83 1012.20 1012.64 1013.14 1013.69 1014.28 1014.89 1015.50 1016.10 1016.68 1017.24 1017.77 1018.28 1018.75
1013.50 1013.32 1013.15 1012.98 1012.80 1012.61 1012.41 1012.20 1011.99 1011.78 1011.58 1011.41 1011.25 1011.13 1011.03 1010.95 1010.89 1010.84 1010.81 1010.80 1010.83 1010.89 1011.02 1011.20 1011.46 1011.79 1012.20 1012.66 1013.18 1013.73 1014.30 1014.89 1015.47 1016.05 1016.60 1017.13 1017.63 1018.10
1013.18 1012.99 1012.80 1012.62 1012.45 1012.27 1012.09 1011.91 1011.73 1011.55 1011.38 1011.22 1011.08 1010.96 1010.86 1010.78 1010.71 1010.65 1010.62 1010.61 1010.64 1010.71 1010.83 1011.01 1011.25 1011.56 1011.93 1012.36 1012.83 1013.34 1013.87 1014.42 1014.96 1015.51 1016.04 1016.55 1017.04 1017.51
1012.82 1012.61 1012.42 1012.23 1012.06 1011.90 1011.75 1011.60 1011.45 1011.30 1011.15 1011.01 1010.88 1010.77 1010.66 1010.58 1010.51 1010.47 1010.45 1010.46 1010.51 1010.60 1010.74 1010.93 1011.18 1011.48 1011.82 1012.21 1012.64 1013.10 1013.57 1014.06 1014.56 1015.06 1015.55 1016.04 1016.51 1016.97
1012.39 1012.18 1011.98 1011.81 1011.66 1011.52 1011.40 1011.28 1011.16 1011.04 1010.91 1010.79 1010.66 1010.55 1010.44 1010.36 1010.30 1010.27 1010.27 1010.31 1010.40 1010.53 1010.71 1010.93 1011.19 1011.48 1011.81 1012.17 1012.55 1012.95 1013.36 1013.79 1014.23 1014.68 1015.14 1015.60 1016.06 1016.51
1011.90 1011.69 1011.51 1011.36 1011.23 1011.14 1011.05 1010.97 1010.89 1010.79 1010.68 1010.56 1010.43 1010.30 1010.19 1010.10 1010.05 1010.03 1010.06 1010.14 1010.27 1010.45 1010.67 1010.93 1011.21 1011.52 1011.84 1012.17 1012.51 1012.86 1013.22 1013.59 1013.98 1014.38 1014.80 1015.24 1015.69 1016.15
1011.33 1011.14 1010.98 1010.87 1010.79 1010.74 1010.70 1010.67 1010.62 1010.54 1010.44 1010.32 1010.18 1010.04 1009.91 1009.81 1009.75 1009.75 1009.80 1009.91 1010.08 1010.31 1010.58 1010.87 1011.19 1011.51 1011.84 1012.16 1012.48 1012.79 1013.11 1013.44 1013.78 1014.15 1014.55 1014.98 1015.43 1015.90
1010.70 1010.53 1010.41 1010.34 1010.31 1010.32 1010.33 1010.34 1010.33 1010.27 1010.18 1010.06 1009.90 1009.74 1009.59 1009.47 1009.40 1009.40 1009.46 1009.60 1009.80 1010.07 1010.38 1010.72 1011.07 1011.42 1011.76 1012.09 1012.40 1012.71 1013.01 1013.32 1013.65 1014.01 1014.40 1014.83 1015.29 1015.78
1010.02 1009.88 1009.80 1009.78 1009.81 1009.86 1009.93 1009.98 1009.99 1009.96 1009.87 1009.74 1009.58 1009.39 1009.22 1009.08 1008.99 1008.97 1009.03 1009.18 1009.41 1009.70 1010.05 1010.42 1010.82 1011.20 1011.58 1011.94 1012.27 1012.60 1012.92 1013.24 1013.59 1013.95 1014.36 1014.80 1015.28 1015.79
1009.34 1009.23 1009.18 1009.20 1009.27 1009.36 1009.47 1009.55 1009.59 1009.57 1009.49 1009.36 1009.18 1008.98 1008.78 1008.61 1008.50 1008.47 1008.52 1008.67 1008.90 1009.21 1009.59 1010.00 1010.43 1010.87 1011.30 1011.71 1012.09 1012.47 1012.83 1013.20 1013.57 1013.98 1014.41 1014.87 1015.37 1015.89
1008.69 1008.59 1008.57 1008.61 1008.69 1008.81 1008.93 1009.03 1009.08 1009.08 1009.01 1008.87 1008.69 1008.48 1008.27 1008.08 1007.95 1007.90 1007.93 1008.07 1008.30 1008.63 1009.02 1009.47 1009.95 1010.44 1010.93 1011.41 1011.87 1012.31 1012.74 1013.17 1013.60 1014.05 1014.51 1015.00 1015.50 1016.03
1008.10 1008.01 1007.98 1008.01 1008.09 1008.20 1008.31 1008.41 1008.46 1008.46 1008.40 1008.27 1008.09 1007.89 1007.67 1007.48 1007.34 1007.27 1007.29 1007.41 1007.64 1007.97 1008.38 1008.86 1009.39 1009.94 1010.50 1011.06 1011.61 1012.14 1012.65 1013.15 1013.64 1014.13 1014.63 1015.13 1015.64 1016.16
1007.58 1007.47 1007.41 1007.41 1007.45 1007.52 1007.60 1007.67 1007.72 1007.72 1007.66 1007.55 1007.39 1007.20 1006.99 1006.81 1006.66 1006.59 1006.61 1006.72 1006.95 1007.28 1007.71 1008.23 1008.80 1009.42 1010.05 1010.70 1011.33 1011.95 1012.54 1013.11 1013.66 1014.18 1014.70 1015.21 1015.71 1016.21
1007.10 1006.95 1006.84 1006.77 1006.75 1006.76 1006.79 1006.83 1006.85 1006.84 1006.80 1006.71 1006.58 1006.41 1006.24 1006.07 1005.94 1005.88 1005.90 1006.01 1006.25 1006.59 1007.04 1007.59 1008.21 1008.89 1009.60 1010.33 1011.04 1011.74 1012.40 1013.02 1013.61 1014.16 1014.68 1015.18 1015.67 1016.14
1006.63 1006.42 1006.24 1006.09 1005.98 1005.92 1005.89 1005.88 1005.88 1005.87 1005.83 1005.77 1005.67 1005.55 1005.41 1005.28 1005.19 1005.14 1005.17 1005.31 1005.55 1005.92 1006.40 1006.99 1007.66 1008.40 1009.17 1009.97 1010.75 1011.51 1012.22 1012.88 1013.48 1014.04 1014.55 1015.03 1015.49 1015.94
1006.10 1005.83 1005.56 1005.33 1005.14 1005.00 1004.90 1004.85 1004.83 1004.81 1004.79 1004.76 1004.71 1004.63 1004.54 1004.45 1004.39 1004.38 1004.44 1004.60 1004.88 1005.27 1005.79 1006.42 1007.15 1007.94 1008.78 1009.63 1010.46 1011.26 1012.00 1012.67 1013.28 1013.82 1014.31 1014.77 1015.20 1015.63
1005.47 1005.13 1004.80 1004.49 1004.22 1004.02 1003.88 1003.79 1003.75 1003.73 1003.73 1003.73 1003.71 1003.68 1003.64 1003.60 1003.58 1003.61 1003.71 1003.91 1004.23 1004.67 1005.23 1005.91 1006.69 1007.54 1008.42 1009.32 1010.18 1011.00 1011.75 1012.42 1013.01 1013.53 1013.99 1014.41 1014.82 1015.24
1004.72 1004.32 1003.93 1003.57 1003.26 1003.01 1002.84 1002.73 1002.68 1002.68 1002.69 1002.72 1002.74 1002.75 1002.74 1002.74 1002.77 1002.84 1002.98 1003.23 1003.59 1004.08 1004.70 1005.44 1006.27 1007.17 1008.10 1009.03 1009.92 1010.75 1011.49 1012.14 1012.71 1013.20 1013.63 1014.03 1014.43 1014.85
1003.84 1003.41 1002.99 1002.61 1002.27 1002.01 1001.83 1001.72 1001.68 1001.69 1001.72 1001.77 1001.81 1001.84 1001.87 1001.90 1001.96 1002.07 1002.26 1002.55 1002.97 1003.52 1004.20 1005.00 1005.89 1006.84 1007.82 1008.77 1009.68 1010.51 1011.24 1011.87 1012.41 1012.87 1013.28 1013.67 1014.07 1014.50
1002.87 1002.44 1002.02 1001.63 1001.31 1001.06 1000.89 1000.80 1000.78 1000.80 1000.85 1000.90 1000.96 1001.00 1001.04 1001.09 1001.17 1001.32 1001.55 1001.89 1002.36 1002.97 1003.72 1004.58 1005.53 1006.53 1007.54 1008.53 1009.45 1010.28 1011.00 1011.62 1012.14 1012.59 1012.98 1013.37 1013.77 1014.23
1001.88 1001.45 1001.05 1000.69 1000.40 1000.19 1000.05 999.99 999.99 1000.02 1000.08 1000.14 1000.19 1000.23 1000.27 1000.32 1000.42 1000.58 1000.84 1001.23 1001.75 1002.42 1003.23 1004.15 1005.16 1006.21 1007.26 1008.27 1009.21 1010.05 1010.77 1011.39 1011.90 1012.34 1012.74 1013.13 1013.56 1014.04
1000.92 1000.51 1000.14 999.82 999.58 999.41 999.32 999.29 999.31 999.35 999.41 999.46 999.50 999.53 999.56 999.61 999.70 999.88 1000.17 1000.58 1001.15 1001.87 1002.73 1003.71 1004.76 1005.86 1006.95 1007.99 1008.95 1009.80 1010.54 1011.15 1011.67 1012.12 1012.54 1012.94 1013.39 1013.89
Thickness
5633 5633 5632 5637 5639 5642 5645 5647 5648 5652 5660 5668 5672 5678 5681 5686 5689 5693 5698 5700 5702 5704 5707 5709 5712 5715 5717 5718 5719 5719 5719 5719 5719 5719 5719 5718 5717 5716
5621 5619 5619 5623 5628 5630 5633 5637 5641 5644 5649 5659 5662 5667 5670 5676 5681 5686 5691 5695 5698 5700 5702 5705 5708 5710 5713 5715 5716 5717 5717 5718 5718 5718 5718 5718 5717 5717
5612 5611 5610 5609 5613 5618 5622 5626 5631 5635 5639 5648 5654 5659 5659 5664 5672 5678 5684 5688 5692 5694 5696 5700 5702 5706 5709 5711 5714 5715 5716 5716 5716 5717 5717 5717 5716 5716
5603 5601 5601 5601 5602 5603 5608 5613 5619 5624 5628 5633 5642 5648 5651 5656 5662 5668 5676 5682 5686 5687 5690 5694 5697 5700 5703 5706 5709 5711 5713 5714 5714 5715 5715 5715 5715 5714
5595 5593 5592 5592 5592 5594 5596 5601 5608 5614 5618 5624 5631 5639 5644 5649 5653 5659 5666 5671 5677 5680 5683 5687 5690 5693 5696 5700 5703 5706 5708 5710 5711 5712 5712 5713 5713 5712
5586 5585 5584 5584 5584 5584 5587 5590 5594 5600 5607 5613 5622 5630 5636 5641 5645 5649 5655 5661 5667 5673 5676 5679 5682 5685 5689 5693 5697 5699 5702 5705 5706 5708 5709 5709 5710 5710
5579 5578 5578 5577 5576 5576 5579 5583 5586 5590 5597 5605 5612 5620 5627 5632 5638 5644 5647 5652 5657 5663 5668 5672 5676 5680 5682 5685 5689 5692 5695 5698 5700 5702 5704 5705 5706 5706
5571 5571 5571 5570 5568 5565 5566 5567 5570 5577 5586 5593 5602 5609 5615 5624 5630 5636 5639 5642 5647 5656 5660 5663 5669 5673 5676 5679 5682 5684 5687 5691 5694 5696 5698 5700 5701 5702
5564 5564 5565 5569 5565 5564 5562 5559 5560 5563 5566 5573 5586 5596 5605 5612 5619 5626 5630 5636 5642 5649 5652 5653 5659 5663 5666 5669 5673 5676 5679 5683 5687 5690 5693 5694 5696 5697
5559 5558 5558 5557 5557 5556 5556 5558 5560 5562 5562 5564 5571 5582 5589 5596 5605 5613 5622 5628 5633 5639 5645 5646 5649 5653 5655 5659 5662 5667 5671 5676 5680 5684 5686 5688 5690 5691
5556 5555 5553 5551 5548 5544 5544 5548 5551 5554 5556 5558 5563 5569 5574 5581 5588 5598 5611 5618 5622 5629 5635 5640 5641 5643 5645 5649 5653 5658 5663 5668 5673 5676 5679 5681 5683 5683
5552 5550 5546 5543 5540 5534 5534 5537 5541 5545 5548 5554 5554 5558 5564 5571 5577 5585 5599 5610 5617 5620 5627 5632 5634 5636 5636 5639 5644 5649 5654 5658 5664 5668 5671 5674 5676 5677
5547 5546 5544 5538 5531 5526 5523 5527 5531 5533 5538 5542 5548 5555 5561 5568 5576 5584 5592 5602 5611 5617 5622 5626 5629 5633 5636 5633 5634 5640 5645 5650 5654 5658 5662 5665 5669 5673
5539 5539 5538 5529 5524 5519 5517 5519 5518 5518 5526 5532 5539 5547 5556 5565 5573 5580 5589 5596 5605 5612 5617 5622 5626 5629 5631 5631 5630 5630 5635 5640 5646 5650 5652 5656 5660 5665
5534 5532 5526 5520 5516 5515 5513 5511 5509 5513 5518 5524 5531 5539 5547 5556 5565 5571 5579 5586 5593 5601 5608 5616 5622 5625 5629 5632 5630 5628 5628 5631 5637 5642 5645 5649 5653 5657
5528 5526 5520 5516 5513 5512 5513 5511 5510 5512 5514 5517 5523 5529 5536 5544 5553 5563 5571 5578 5584 5591 5599 5606 5613 5618 5622 5628 5630 5628 5629 5628 5630 5635 5639 5643 5647 5652
5523 5522 5523 5523 5521 5520 5518 5515 5512 5510 5508 5510 5512 5517 5525 5533 5544 5554 5563 5572 5579 5586 5590 5595 5602 5608 5613 5619 5623 5626 5626 5626 5626 5629 5632 5637 5642 5648
5512 5520 5524 5524 5522 5521 5518 5515 5510 5507 5505 5504 5505 5510 5517 5525 5534 5544 5554 5563 5574 5582 5585 5589 5592 5596 5599 5604 5614 5620 5622 5623 5624 5624 5629 5634 5638 5643
5513 5521 5524 5524 5523 5521 5517 5513 5510 5507 5504 5502 5503 5506 5512 5519 5528 5537 5548 5558 5568 5576 5581 5584 5589 5594 5598 5602 5603 5612 5619 5620 5619 5621 5626 5633 5638 5640
5522 5526 5527 5526 5525 5521 5517 5513 5510 5507 5505 5503 5503 5506 5510 5517 5524 5534 5544 5555 5564 5571 5576 5580 5587 5595 5602 5605 5603 5605 5611 5616 5617 5619 5623 5628 5632 5632
5529 5529 5529 5529 5527 5524 5520 5515 5511 5508 5506 5505 5506 5508 5511 5517 5524 5533 5544 5551 5560 5568 5573 5579 5586 5590 5594 5596 5597 5598 5601 5605 5613 5619 5621 5624 5626 5628
5529 5528 5529 5529 5528 5526 5522 5518 5514 5511 5510 5509 5509 5511 5514 5519 5526 5535 5544 5552 5559 5566 5573 5575 5577 5581 5587 5594 5598 5595 5596 5597 5601 5608 5614 5621 5630 5633
5530 5528 5528 5528 5528 5526 5525 5522 5519 5516 5515 5515 5515 5517 5520 5524 5530 5537 5545 5553 5559 5564 5568 5570 5572 5577 5583 5589 5593 5593 5592 5593 5596 5600 5606 5612 5621 5629